Location: Carroll
(32.4774°N, 95.5202°W)
Time: 22:46:02
(UTC+02:00)

Daily predictions for brighter satellites

Satellite Brightness Start Highest point End
(mag) Time Altitude Azimuth Time Altitude Azimuth Time Altitude Azimuth
Cosmos 2369 Rocket 3.7 12:03:27 14° W 12:06:27 22° WNW 12:10:43 10° N
Cosmos 158 Rocket 4.4 12:02:37 10° NW 12:07:13 36° W 12:11:41 10° SSW
ADEOS II 2.1 12:03:35 10° NNE 12:08:53 86° ESE 12:14:07 10° SSW
Cosmos 405 Rocket 4.2 12:08:44 10° NW 12:11:37 20° W 12:12:43 18° WSW
deb Kosmos-1763 4.2 12:12:35 10° NNW 12:16:16 55° WSW 12:19:55 10° S
Tiangong 2 3.1 12:14:40 11° S 12:16:52 20° SE 12:19:19 10° E
Cosmos 1300 Rocket 4.3 12:15:19 16° SW 12:18:22 35° W 12:22:27 10° NNW
Cosmos 1656 Rocket 3.6 12:14:15 12° SSW 12:19:12 75° WNW 12:24:38 10° NNE
CENTAUR R/B 2.5 12:15:01 14° SW 12:20:09 76° WNW 12:26:46 10° NNE
BREEZE-M DEB (TANK) 3.9 12:10:07 10° NW 12:21:07 55° SW 12:25:47 10° SSE
Meteor 1-31 Rocket 4.1 12:29:32 10° NNE 12:33:08 39° E 12:36:41 10° S
Cosmos 1536 4.0 12:30:32 12° SW 12:33:27 25° WNW 12:36:45 10° NNW
ASTRO E2 2.6 12:31:11 10° W 12:35:10 77° S 12:39:10 10° E
PAYLOAD B 4.3 12:30:17 10° N 12:35:47 71° WNW 12:41:18 10° SSW
BREEZE-M DEB (TANK) 2.4 12:33:12 10° WNW 12:36:17 46° SW 12:38:59 10° SE
COSMOS 2455 4.2 12:31:55 10° WSW 12:36:41 24° NW 12:41:30 10° N
USA 161 3.3 12:38:08 10° WSW 12:38:36 11° W 12:39:15 10° WNW
Cosmos 1500 3.5 12:36:14 10° S 12:39:57 69° E 12:43:41 10° NNE
Okean O Rocket 1.9 12:35:43 10° N 12:39:57 49° WNW 12:44:12 10° SSW
CZ-4B DEB 4.3 12:34:52 10° N 12:40:22 70° WNW 12:45:52 10° SSW
Cosmos 1833 4.3 12:34:55 10° NNW 12:40:42 67° WSW 12:46:24 10° S
Cosmos 1455 Rocket 4.1 12:37:09 10° SSE 12:41:20 47° E 12:45:30 10° NNE
IRS-1C Rocket 4.1 12:37:38 10° N 12:42:52 69° WNW 12:48:04 10° SSW
Cosmos 1745 Rocket 4.1 12:40:21 10° SSW 12:46:39 67° W 12:52:57 10° N
Okean 2 3.4 12:43:10 10° N 12:47:21 77° W 12:51:31 10° S
